Hourly Data Report for October 05, 2017

All times are specified in Local Standard Time (LST). Add 1 hour to adjust for Daylight Saving Time where and when it is observed.

FREDERICTON
NEW BRUNSWICK

45°52'08.000" N
66°32'14.000" W
20.70 m
8101505
71700
YFC

Download Data

Hourly Data (October 2017)
Hourly Data Report for October 5, 2017
Temp Definition
°C
Dew Point Temp Definition
°C
Rel Hum Definition
%
Wind Dir Definition
10's deg

Wind Spd Definition
km/h
Visibility Definition
km
Stn Press Definition
kPa
Hmdx Definition


Wind Chill Definition


Weather Definition


TIME
00:00 Legend Double Dagger 16.6 11.2 70 21 24 16.1 100.74     LegendNANA
01:00 Legend Double Dagger 14.7 12.9 89 18 17 16.1 100.72     Rain
02:00 Legend Double Dagger 14.7 13.4 92 22 17 16.1 100.75     LegendNANA
03:00 Legend Double Dagger 15.2 13.8 91 19 11 16.1 100.64     LegendNANA
04:00 Legend Double Dagger 14.9 13.8 93 23 4 16.1 100.66     LegendNANA
05:00 Legend Double Dagger 14.4 13.6 95 22 13 16.1 100.75     LegendNANA
06:00 Legend Double Dagger 15.5 14.4 93 27 9 16.1 100.84     LegendNANA
07:00 Legend Double Dagger 15.2 11.0 76 29 9 16.1 100.94     LegendNANA
08:00 Legend Double Dagger 15.7 10.9 73 29 21 16.1 101.04     LegendNANA
09:00 Legend Double Dagger 16.1 10.0 67 30 13 16.1 101.13     LegendNANA
10:00 Legend Double Dagger 16.7 7.9 56 30 22 16.1 101.17     LegendNANA
11:00 Legend Double Dagger 18.4 9.2 55 32 18 16.1 101.14     LegendNANA
12:00 Legend Double Dagger 18.6 7.9 49 27 15 16.1 101.09     LegendNANA
13:00 Legend Double Dagger 19.8 7.8 45 29 15 16.1 101.05     LegendNANA
14:00 Legend Double Dagger 20.8 7.1 41 27 8 16.1 100.94     LegendNANA
15:00 Legend Double Dagger 20.8 6.1 38 27 15 16.1 100.94     LegendNANA
16:00 Legend Double Dagger 20.1 4.4 35 28 17 16.1 100.93     LegendNANA
17:00 Legend Double Dagger 19.2 4.4 37 28 13 16.1 100.97     LegendNANA
18:00 Legend Double Dagger 17.0 4.9 44 27 9 16.1 101.01     LegendNANA
19:00 Legend Double Dagger 13.6 6.9 64 19 5 16.1 100.99     LegendNANA
20:00 Legend Double Dagger 12.0 6.5 69 20 9 16.1 101.00     LegendNANA
21:00 Legend Double Dagger 11.8 6.8 71 20 5 16.1 101.01     LegendNANA
22:00 Legend Double Dagger 11.5 6.9 73 22 9 16.1 101.05     LegendNANA
23:00 Legend Double Dagger 13.7 6.8 63 23 9 16.1 101.06     LegendNANA

Notes on Data Quality.

Legend

  • E = Estimated
  • M = Missing
  • NA = Not Available
  • ‡ = Partner data that is not subject to review by the National Climate Archives
Date modified: